Flag for Brunei Weather past 2 weeks in Bandar Seri Begawan, Brunei

86 °F

Partly sunny.

Feels Like: 97 °F
Forecast: 79 / 88 °F
Wind: 5 mph from Northwest

Location: Brunei Airport

Current Time: Oct 7, 2015 at 6:23:53 PM

Latest Report: Oct 7, 2015 at 6:00 PM

Visibility: 6 mi

Pressure: 29.83 "Hg

Humidity: 75%

Dew point: 77 °F

Location of Bandar Seri BegawanLocation

Historic Weather in Bandar Seri Begawan — Graph


Bandar Seri Begawan temperature yesterday

Maximum temperature yesterday: 91 °F (at 11:00 AM)
Minimum temperature yesterday: 77 °F (at 6:30 AM)
Average temperature yesterday: 84 °F

Past Weeks' High & Low Weather Summary

High93 °F (Sep 26, 1:00 PM)100% (Sep 24, 5:00 AM)29.98 "Hg (Sep 24, 5:00 AM)
Low75 °F (Sep 30, 4:30 AM)52% (Sep 26, 12:30 PM)29.74 "Hg (Sep 25, 2:30 PM)
Average83 °F82%29.86 "Hg
* Reported Sep 22 5:00 PM — Oct 7 5:00 PM, Bandar Seri Begawan, Weather by CustomWeather, © 2015

Note: Actual official high and low records may vary slightly from our data, if they occured in-between our weather recording intervals... More about our weather records


Bandar Seri Begawan weather history for previous 24 hours

Time TempWeatherWind HumidityBarometerVisibility
5:00 PM
Wed, Oct 7
88 °FPartly sunny.9 mph66%29.80 "Hg6 mi
4:30 PM88 °FPartly sunny.8 mph66%29.80 "Hg6 mi
4:00 PM90 °FPartly sunny.8 mph59%29.80 "Hg6 mi
3:30 PM90 °FPartly sunny.9 mph59%29.80 "HgN/A
3:00 PM90 °FPartly sunny.9 mph59%29.80 "HgN/A
2:30 PM91 °FPartly sunny.8 mph59%29.80 "HgN/A
2:00 PM91 °FPartly sunny.8 mph67%29.83 "HgN/A
1:30 PM90 °FBroken clouds.8 mph67%29.83 "HgN/A
1:00 PM90 °FBroken clouds.7 mph67%29.86 "HgN/A
12:30 PM91 °FBroken clouds.5 mph63%29.86 "HgN/A
12:00 PM88 °FBroken clouds.6 mph70%29.89 "HgN/A
11:30 AM90 °FBroken clouds.6 mph59%29.89 "HgN/A
11:00 AM91 °FBroken clouds.5 mph63%29.92 "HgN/A
10:30 AM88 °FPartly sunny.6 mph70%29.92 "HgN/A
10:00 AM88 °FPartly sunny.5 mph70%29.92 "HgN/A
9:30 AM88 °FPartly sunny.7 mph70%29.95 "HgN/A
9:00 AM86 °FPartly sunny.7 mph75%29.92 "HgN/A
8:30 AM84 °FPartly sunny.7 mph79%29.92 "HgN/A
8:00 AM81 °FPartly sunny.6 mph89%29.92 "HgN/A
7:30 AM79 °FPartly sunny.5 mph94%29.92 "Hg6 mi
7:00 AM79 °FPartly sunny.5 mph94%29.89 "Hg6 mi
6:30 AM77 °FBroken clouds.3 mph94%29.89 "Hg6 mi
6:00 AM77 °FPartly cloudy.6 mph94%29.89 "Hg6 mi
5:30 AM79 °FPartly cloudy.3 mph94%29.86 "Hg6 mi
5:00 AM79 °FPassing clouds.2 mph94%29.86 "Hg5 mi
4:30 AM79 °FPassing clouds.3 mph94%29.86 "Hg5 mi
4:00 AM79 °FPassing clouds.5 mph94%29.86 "Hg5 mi
3:30 AM79 °FPassing clouds.5 mph94%29.86 "Hg5 mi
3:00 AM79 °FPassing clouds.2 mph94%29.83 "Hg5 mi
2:30 AM79 °FPartly cloudy.3 mph94%29.86 "Hg5 mi
2:00 AM79 °FPassing clouds.3 mph94%29.86 "Hg5 mi
1:30 AM79 °FPassing clouds.3 mph94%29.86 "Hg5 mi
1:00 AM79 °FPassing clouds.3 mph94%29.89 "Hg5 mi
12:30 AM81 °FPassing clouds.2 mph89%29.89 "Hg5 mi
12:00 AM81 °FPassing clouds.5 mph89%29.89 "Hg5 mi
11:30 PM
Tue, Oct 6
81 °FPassing clouds.3 mph84%29.89 "Hg5 mi
11:00 PM81 °FPassing clouds.3 mph84%29.89 "Hg5 mi
10:30 PM81 °FPartly cloudy.5 mph84%29.89 "Hg5 mi
10:00 PM81 °FPartly cloudy.6 mph89%29.92 "Hg5 mi
9:30 PM82 °FPartly cloudy.7 mph84%29.92 "Hg5 mi
9:00 PM84 °FPartly cloudy.5 mph79%29.89 "Hg5 mi
8:30 PM84 °FPartly cloudy.1 mph74%29.89 "Hg6 mi
8:00 PM86 °FPartly cloudy.1 mph70%29.86 "Hg6 mi
7:30 PM86 °FPassing clouds.2 mph70%29.86 "Hg6 mi
7:00 PM86 °FPartly cloudy.3 mph70%29.83 "Hg6 mi
6:30 PM86 °FPassing clouds.3 mph70%29.83 "Hg6 mi
6:00 PM88 °FPartly sunny.6 mph66%29.83 "Hg6 mi
Weather by CustomWeather, © 2015

See weather overviewHow to use our weather pages